AXB219 VOMM-VOBL

Flight info

Callsign AXB219
Flight time 0h 31m
Altitude 20000
Route MMV W117 BIA
Aircraft B38M/M-SDE1FGHILORVWXY/HB1

Departure

Time 2026-04-30 13:25
Airport Chennai International Airport (VOMM)

Arrival

Time 2026-04-30 13:56
Airport Kempegowda International Airport Bengaluru (VOBL)
Time Latitude Longitude Altitude Speed Heading
2026-04-30 13:04 12.98505 80.16708 58 ft 0 kts 160°
2026-04-30 13:16 12.98514 80.16704 58 ft 2 kts 159°
2026-04-30 13:17 12.98545 80.16692 50 ft 2 kts 154°
2026-04-30 13:17 12.98558 80.16681 54 ft 2 kts 91°
2026-04-30 13:17 12.98558 80.16676 56 ft 0 kts 70°
2026-04-30 13:18 12.98558 80.16678 55 ft 1 kts 70°
2026-04-30 13:18 12.98567 80.16700 54 ft 5 kts 69°
2026-04-30 13:19 12.98586 80.16745 56 ft 8 kts 57°
2026-04-30 13:19 12.98638 80.16763 52 ft 9 kts 343°
2026-04-30 13:19 12.98706 80.16737 52 ft 12 kts 337°
2026-04-30 13:19 12.98763 80.16747 58 ft 6 kts 53°
2026-04-30 13:20 12.98780 80.16793 53 ft 8 kts 69°
2026-04-30 13:20 12.98803 80.16859 58 ft 12 kts 70°
2026-04-30 13:20 12.98838 80.16953 55 ft 17 kts 68°
2026-04-30 13:20 12.98888 80.17086 57 ft 24 kts 69°
2026-04-30 13:21 12.98965 80.17262 54 ft 30 kts 60°
2026-04-30 13:21 12.99051 80.17480 53 ft 36 kts 68°
2026-04-30 13:21 12.99143 80.17691 55 ft 20 kts 35°
2026-04-30 13:22 12.99240 80.17811 54 ft 16 kts 65°
2026-04-30 13:22 12.99289 80.17941 57 ft 23 kts 69°
2026-04-30 13:22 12.99385 80.18272 55 ft 25 kts 56°
2026-04-30 13:23 12.99470 80.18358 56 ft 17 kts 42°
2026-04-30 13:23 12.99578 80.18395 56 ft 5 kts 263°
2026-04-30 13:24 12.99501 80.18192 55 ft 49 kts 249°
2026-04-30 13:24 12.98939 80.16728 113 ft 159 kts 243°
2026-04-30 13:25 12.98465 80.14217 957 ft 210 kts 271°
2026-04-30 13:25 12.99592 80.11440 2420 ft 220 kts 289°
2026-04-30 13:26 13.00804 80.07184 3605 ft 253 kts 283°
2026-04-30 13:26 13.01719 80.03655 5016 ft 255 kts 284°
2026-04-30 13:27 13.02636 80.00020 6196 ft 279 kts 284°
2026-04-30 13:28 13.04126 79.94067 8173 ft 294 kts 285°
2026-04-30 13:28 13.05158 79.89933 9556 ft 304 kts 285°
2026-04-30 13:28 13.05688 79.87807 10155 ft 311 kts 285°
2026-04-30 13:29 13.06800 79.83348 11109 ft 333 kts 285°
2026-04-30 13:29 13.07949 79.78732 12686 ft 337 kts 285°
2026-04-30 13:30 13.09713 79.71645 14891 ft 345 kts 285°
2026-04-30 13:31 13.10911 79.66828 16290 ft 351 kts 285°
2026-04-30 13:31 13.12735 79.59481 18250 ft 360 kts 285°
2026-04-30 13:32 13.13977 79.54471 19392 ft 364 kts 285°
2026-04-30 13:32 13.15227 79.49427 19782 ft 363 kts 284°
2026-04-30 13:33 13.16470 79.44408 19788 ft 362 kts 284°
2026-04-30 13:33 13.17711 79.39392 19793 ft 363 kts 284°
2026-04-30 13:34 13.18331 79.36884 19796 ft 362 kts 284°
2026-04-30 13:34 13.20185 79.29382 19804 ft 363 kts 284°
2026-04-30 13:35 13.20804 79.26873 19806 ft 363 kts 284°
2026-04-30 13:35 13.22046 79.21836 19815 ft 363 kts 284°
2026-04-30 13:36 13.23282 79.16819 19822 ft 362 kts 284°
2026-04-30 13:36 13.23900 79.14311 19828 ft 362 kts 284°
2026-04-30 13:36 13.25127 79.09323 19836 ft 362 kts 284°
2026-04-30 13:37 13.25743 79.06815 19839 ft 362 kts 284°
2026-04-30 13:37 13.26977 79.01795 19850 ft 362 kts 285°
2026-04-30 13:38 13.28211 78.96773 19859 ft 363 kts 284°
2026-04-30 13:38 13.28827 78.94263 19865 ft 363 kts 284°
2026-04-30 13:38 13.29196 78.89137 19872 ft 364 kts 267°
2026-04-30 13:39 13.28865 78.83957 19879 ft 364 kts 267°
2026-04-30 13:39 13.28518 78.79002 19890 ft 365 kts 266°
2026-04-30 13:40 13.28332 78.76408 19894 ft 365 kts 266°
2026-04-30 13:40 13.28144 78.73808 19896 ft 365 kts 266°
2026-04-30 13:40 13.27957 78.71209 19901 ft 365 kts 266°
2026-04-30 13:40 13.27769 78.68609 19905 ft 365 kts 266°
2026-04-30 13:41 13.27584 78.66056 19932 ft 351 kts 266°
2026-04-30 13:41 13.27405 78.63598 19848 ft 339 kts 266°
2026-04-30 13:41 13.27232 78.61214 19704 ft 329 kts 267°
2026-04-30 13:41 13.27063 78.58880 19391 ft 329 kts 266°
2026-04-30 13:42 13.26891 78.56528 19016 ft 332 kts 267°
2026-04-30 13:42 13.26719 78.54155 18637 ft 334 kts 267°
2026-04-30 13:42 13.26370 78.49388 17817 ft 335 kts 267°
2026-04-30 13:43 13.26207 78.47012 17395 ft 332 kts 270°
2026-04-30 13:43 13.26437 78.44696 16966 ft 329 kts 281°
2026-04-30 13:43 13.26816 78.42390 16545 ft 327 kts 281°
2026-04-30 13:43 13.27188 78.40072 16002 ft 327 kts 281°
2026-04-30 13:44 13.27552 78.37797 15492 ft 321 kts 281°
2026-04-30 13:44 13.27910 78.35555 14989 ft 315 kts 281°
2026-04-30 13:44 13.28261 78.33352 14489 ft 310 kts 281°
2026-04-30 13:44 13.28608 78.31178 13990 ft 306 kts 281°
2026-04-30 13:45 13.29195 78.26909 12899 ft 299 kts 269°
2026-04-30 13:45 13.28706 78.24868 12409 ft 294 kts 244°
2026-04-30 13:45 13.27527 78.23179 11897 ft 289 kts 230°
2026-04-30 13:46 13.26201 78.21642 11366 ft 287 kts 229°
2026-04-30 13:46 13.24874 78.20116 10843 ft 285 kts 229°
2026-04-30 13:46 13.23564 78.18602 10290 ft 282 kts 229°
2026-04-30 13:46 13.22267 78.17099 9782 ft 279 kts 229°
2026-04-30 13:47 13.20990 78.15610 9230 ft 277 kts 229°
2026-04-30 13:47 13.19742 78.14155 8772 ft 271 kts 229°
2026-04-30 13:47 13.18521 78.12724 8384 ft 263 kts 229°
2026-04-30 13:47 13.17334 78.11325 7972 ft 256 kts 230°
2026-04-30 13:48 13.16503 78.09750 7541 ft 250 kts 257°
2026-04-30 13:48 13.16457 78.07974 7163 ft 249 kts 277°
2026-04-30 13:48 13.16694 78.06226 6799 ft 245 kts 279°
2026-04-30 13:48 13.16944 78.04510 6410 ft 242 kts 279°
2026-04-30 13:49 13.17195 78.02814 6067 ft 236 kts 279°
2026-04-30 13:49 13.17481 78.01287 6034 ft 232 kts 289°
2026-04-30 13:49 13.18153 77.99764 6008 ft 236 kts 298°
2026-04-30 13:49 13.18924 77.98292 5995 ft 228 kts 299°
2026-04-30 13:50 13.19641 77.96931 6000 ft 205 kts 298°
2026-04-30 13:50 13.20355 77.94131 6012 ft 204 kts 276°
2026-04-30 13:50 13.20419 77.93290 6028 ft 204 kts 274°
2026-04-30 13:51 13.20452 77.92711 6033 ft 205 kts 274°
2026-04-30 13:51 13.20508 77.91251 6020 ft 204 kts 272°
2026-04-30 13:51 13.20539 77.89794 6005 ft 204 kts 272°
2026-04-30 13:51 13.20558 77.88361 5825 ft 194 kts 271°
2026-04-30 13:52 13.20571 77.87052 5607 ft 172 kts 271°
2026-04-30 13:52 13.20583 77.85878 5417 ft 162 kts 271°
2026-04-30 13:52 13.20592 77.84717 5209 ft 162 kts 271°
2026-04-30 13:52 13.20602 77.83558 5034 ft 162 kts 271°
2026-04-30 13:53 13.20611 77.82416 4827 ft 162 kts 271°
2026-04-30 13:53 13.20619 77.81264 4607 ft 161 kts 270°
2026-04-30 13:53 13.20628 77.80116 4407 ft 161 kts 270°
2026-04-30 13:53 13.20637 77.78968 4204 ft 160 kts 270°
2026-04-30 13:54 13.20646 77.77828 4000 ft 159 kts 269°
2026-04-30 13:54 13.20656 77.76692 3819 ft 158 kts 269°
2026-04-30 13:54 13.20661 77.75562 3678 ft 159 kts 269°
2026-04-30 13:54 13.20661 77.74427 3537 ft 159 kts 269°
2026-04-30 13:55 13.20664 77.73287 3307 ft 163 kts 271°
2026-04-30 13:55 13.20688 77.72126 2996 ft 163 kts 270°
2026-04-30 13:55 13.20694 77.71119 2971 ft 109 kts 271°
2026-04-30 13:55 13.20699 77.70555 2971 ft 59 kts 268°
2026-04-30 13:56 13.20625 77.70323 2972 ft 2 kts 240°
2026-04-30 13:56 13.20624 77.70320 2972 ft 2 kts 240°
2026-04-30 13:57 13.20601 77.70282 2973 ft 10 kts 237°
2026-04-30 13:57 13.20552 77.70259 2974 ft 7 kts 156°
2026-04-30 13:57 13.20531 77.70304 2973 ft 0 kts 87°
2026-04-30 13:57 13.20531 77.70314 2973 ft 6 kts 88°
2026-04-30 13:58 13.20530 77.70399 2971 ft 17 kts 91°
2026-04-30 13:58 13.20527 77.70747 2969 ft 27 kts 92°
2026-04-30 13:58 13.20525 77.70942 2967 ft 30 kts 92°
2026-04-30 13:59 13.20522 77.71131 2968 ft 27 kts 90°
2026-04-30 13:59 13.20522 77.71265 2969 ft 11 kts 90°
2026-04-30 13:59 13.20521 77.71381 2968 ft 21 kts 90°
2026-04-30 13:59 13.20519 77.71563 2970 ft 30 kts 90°
2026-04-30 14:00 13.20519 77.71689 2972 ft 2 kts 90°
2026-04-30 14:00 13.20519 77.71899 2970 ft 28 kts 91°
2026-04-30 14:00 13.20516 77.72073 2970 ft 21 kts 93°
2026-04-30 14:01 13.20435 77.72117 2970 ft 13 kts 192°
2026-04-30 14:01 13.20338 77.72112 2971 ft 15 kts 178°
2026-04-30 14:01 13.20223 77.72110 2971 ft 18 kts 181°
2026-04-30 14:01 13.20088 77.72110 2971 ft 21 kts 181°
2026-04-30 14:02 13.19972 77.72110 2971 ft 12 kts 181°
2026-04-30 14:02 13.19953 77.72102 2971 ft 3 kts 229°
2026-04-30 14:02 13.19950 77.72045 2971 ft 13 kts 271°
2026-04-30 14:02 13.19950 77.72015 2971 ft 0 kts 269°